QPF
0.12 0.19 0.19 0.11 0.07 0.06 0.05 0.04 0.02 0.00 0.00 0.00 0.00 0.00 0.00 0.00 0.00 0.00 0.00 0.00 0.00 0.00 0.00 0.00 0.00 0.00 0.00 0.00 0.00 0.00 0.00 0.00 0.00 0.00 0.00 0.00 0.00 0.00 0.00 0.00 0.00 0.00 0.00 0.00
0.18 0.17 0.11 0.09 0.10 0.10 0.09 0.07 0.03 0.01 0.00 0.00 0.00 0.00 0.00 0.00 0.00 0.00 0.00 0.00 0.00 0.00 0.00 0.00 0.00 0.00 0.00 0.00 0.00 0.00 0.00 0.00 0.00 0.00 0.00 0.00 0.00 0.00 0.00 0.00 0.00 0.00 0.00 0.00
0.16 0.10 0.10 0.17 0.19 0.16 0.13 0.11 0.05 0.02 0.01 0.00 0.00 0.00 0.00 0.00 0.00 0.00 0.00 0.00 0.00 0.00 0.00 0.00 0.00 0.00 0.00 0.00 0.00 0.00 0.00 0.00 0.00 0.00 0.00 0.00 0.00 0.00 0.00 0.00 0.00 0.00 0.00 0.00
0.11 0.08 0.18 0.28 0.26 0.19 0.15 0.09 0.06 0.03 0.01 0.00 0.00 0.00 0.00 0.00 0.00 0.00 0.00 0.00 0.00 0.00 0.00 0.00 0.00 0.00 0.00 0.00 0.00 0.00 0.00 0.00 0.00 0.00 0.00 0.00 0.00 0.00 0.00 0.00 0.00 0.00 0.00 0.00
0.10 0.08 0.25 0.37 0.26 0.19 0.14 0.07 0.07 0.05 0.02 0.01 0.00 0.00 0.00 0.00 0.00 0.00 0.00 0.00 0.00 0.00 0.00 0.00 0.00 0.00 0.00 0.00 0.00 0.00 0.00 0.00 0.00 0.00 0.00 0.00 0.00 0.00 0.00 0.00 0.00 0.00 0.00 0.00
0.08 0.10 0.26 0.35 0.25 0.21 0.16 0.13 0.10 0.06 0.03 0.01 0.00 0.00 0.00 0.00 0.00 0.00 0.00 0.00 0.00 0.00 0.00 0.00 0.00 0.00 0.00 0.00 0.00 0.00 0.00 0.00 0.00 0.00 0.00 0.00 0.00 0.00 0.00 0.00 0.00 0.00 0.00 0.00
0.10 0.17 0.27 0.39 0.40 0.34 0.27 0.25 0.19 0.13 0.05 0.01 0.00 0.00 0.00 0.00 0.00 0.00 0.00 0.00 0.00 0.00 0.00 0.00 0.00 0.00 0.00 0.00 0.00 0.00 0.00 0.00 0.00 0.00 0.00 0.00 0.00 0.00 0.00 0.00 0.00 0.00 0.00 0.00
0.12 0.18 0.26 0.44 0.53 0.43 0.28 0.20 0.10 0.06 0.02 0.00 0.00 0.00 0.00 0.00 0.00 0.00 0.00 0.00 0.00 0.00 0.00 0.00 0.00 0.00 0.00 0.00 0.00 0.00 0.00 0.00 0.00 0.00 0.00 0.00 0.00 0.00 0.00 0.00 0.00 0.00 0.00 0.00
0.11 0.16 0.21 0.33 0.41 0.34 0.23 0.12 0.04 0.01 0.00 0.00 0.00 0.00 0.00 0.00 0.00 0.00 0.00 0.00 0.00 0.00 0.00 0.00 0.00 0.00 0.00 0.00 0.00 0.00 0.00 0.00 0.00 0.00 0.00 0.00 0.00 0.00 0.00 0.00 0.00 0.00 0.00 0.00
0.16 0.21 0.24 0.30 0.39 0.34 0.20 0.08 0.03 0.01 0.00 0.00 0.00 0.00 0.00 0.00 0.00 0.00 0.00 0.00 0.00 0.00 0.00 0.00 0.00 0.00 0.00 0.00 0.00 0.00 0.00 0.00 0.00 0.00 0.00 0.00 0.00 0.00 0.00 0.00 0.00 0.00 0.00 0.00
0.19 0.27 0.30 0.32 0.38 0.26 0.14 0.08 0.03 0.01 0.00 0.00 0.00 0.00 0.00 0.00 0.00 0.00 0.00 0.00 0.00 0.00 0.00 0.00 0.00 0.00 0.00 0.00 0.00 0.00 0.00 0.00 0.00 0.00 0.00 0.00 0.00 0.00 0.00 0.00 0.00 0.00 0.00 0.00
0.15 0.25 0.30 0.26 0.19 0.12 0.07 0.04 0.02 0.00 0.00 0.00 0.00 0.00 0.00 0.00 0.00 0.00 0.00 0.00 0.00 0.00 0.00 0.00 0.00 0.00 0.00 0.00 0.00 0.00 0.00 0.00 0.00 0.00 0.00 0.00 0.00 0.00 0.00 0.00 0.00 0.00 0.00 0.00
0.11 0.17 0.25 0.21 0.15 0.10 0.06 0.02 0.01 0.01 0.00 0.00 0.00 0.00 0.00 0.00 0.00 0.00 0.00 0.00 0.00 0.00 0.00 0.00 0.00 0.00 0.00 0.00 0.00 0.00 0.00 0.00 0.00 0.00 0.00 0.00 0.00 0.00 0.00 0.00 0.00 0.00 0.00 0.00
0.10 0.10 0.12 0.12 0.06 0.04 0.02 0.01 0.00 0.00 0.00 0.00 0.00 0.00 0.00 0.00 0.00 0.00 0.00 0.00 0.00 0.00 0.00 0.00 0.00 0.00 0.00 0.00 0.00 0.00 0.00 0.00 0.00 0.00 0.00 0.00 0.00 0.00 0.00 0.00 0.00 0.00 0.00 0.00
0.08 0.06 0.05 0.04 0.01 0.00 0.00 0.00 0.00 0.00 0.00 0.00 0.00 0.00 0.00 0.00 0.00 0.00 0.00 0.00 0.00 0.00 0.00 0.00 0.00 0.00 0.00 0.00 0.00 0.00 0.00 0.00 0.00 0.00 0.00 0.00 0.00 0.00 0.00 0.00 0.00 0.00 0.00 0.00
0.05 0.05 0.03 0.02 0.01 0.00 0.00 0.00 0.00 0.00 0.00 0.00 0.00 0.00 0.00 0.00 0.00 0.00 0.00 0.00 0.00 0.00 0.00 0.00 0.00 0.00 0.00 0.00 0.00 0.00 0.00 0.00 0.00 0.00 0.00 0.00 0.00 0.00 0.00 0.00 0.00 0.00 0.00 0.00
0.02 0.03 0.02 0.01 0.01 0.00 0.00 0.00 0.00 0.00 0.00 0.00 0.00 0.00 0.00 0.00 0.00 0.00 0.00 0.00 0.00 0.00 0.00 0.00 0.00 0.00 0.00 0.00 0.00 0.00 0.00 0.00 0.00 0.00 0.00 0.00 0.00 0.00 0.00 0.00 0.00 0.00 0.00 0.00
0.01 0.02 0.02 0.01 0.01 0.00 0.00 0.00 0.00 0.00 0.00 0.00 0.00 0.00 0.00 0.00 0.00 0.00 0.00 0.00 0.00 0.00 0.00 0.00 0.00 0.00 0.00 0.00 0.00 0.00 0.00 0.00 0.00 0.00 0.00 0.00 0.00 0.00 0.00 0.00 0.00 0.00 0.00 0.00
0.01 0.02 0.03 0.01 0.00 0.00 0.00 0.00 0.00 0.00 0.00 0.00 0.00 0.00 0.00 0.00 0.00 0.00 0.00 0.00 0.00 0.00 0.00 0.00 0.00 0.00 0.00 0.00 0.00 0.00 0.00 0.00 0.00 0.00 0.00 0.00 0.00 0.00 0.00 0.00 0.00 0.00 0.00 0.00
0.01 0.02 0.03 0.02 0.01 0.00 0.00 0.00 0.00 0.00 0.00 0.00 0.00 0.00 0.00 0.00 0.00 0.00 0.00 0.00 0.00 0.00 0.00 0.00 0.00 0.00 0.00 0.00 0.00 0.00 0.00 0.00 0.00 0.00 0.00 0.00 0.00 0.00 0.00 0.00 0.00 0.00 0.00 0.00
0.01 0.03 0.03 0.03 0.01 0.00 0.00 0.00 0.00 0.00 0.00 0.00 0.00 0.00 0.00 0.00 0.00 0.00 0.00 0.00 0.00 0.00 0.00 0.00 0.00 0.00 0.00 0.00 0.00 0.00 0.00 0.00 0.00 0.00 0.00 0.00 0.00 0.00 0.00 0.00 0.00 0.00 0.00 0.00
0.01 0.01 0.02 0.02 0.01 0.00 0.00 0.00 0.00 0.00 0.00 0.00 0.00 0.00 0.00 0.00 0.00 0.00 0.00 0.00 0.00 0.00 0.00 0.00 0.00 0.00 0.00 0.00 0.00 0.00 0.00 0.00 0.00 0.00 0.00 0.00 0.00 0.00 0.00 0.00 0.00 0.00 0.00 0.00
0.00 0.00 0.00 0.00 0.00 0.00 0.00 0.00 0.00 0.00 0.00 0.00 0.00 0.00 0.00 0.00 0.00 0.00 0.00 0.00 0.00 0.00 0.00 0.00 0.00 0.00 0.00 0.00 0.00 0.00 0.00 0.00 0.00 0.00 0.00 0.00 0.00 0.00 0.00 0.00 0.00 0.00 0.00 0.00
0.00 0.00 0.00 0.00 0.00 0.00 0.00 0.00 0.00 0.00 0.00 0.00 0.00 0.00 0.00 0.00 0.00 0.00 0.00 0.00 0.00 0.00 0.00 0.00 0.00 0.00 0.00 0.00 0.00 0.00 0.00 0.00 0.00 0.00 0.00 0.00 0.00 0.00 0.00 0.00 0.00 0.00 0.00 0.00
0.00 0.00 0.00 0.00 0.00 0.00 0.00 0.00 0.00 0.00 0.00 0.00 0.00 0.00 0.00 0.00 0.00 0.00 0.00 0.00 0.00 0.00 0.00 0.00 0.00 0.00 0.00 0.00 0.00 0.00 0.00 0.00 0.00 0.00 0.00 0.00 0.00 0.00 0.00 0.00 0.00 0.00 0.00 0.00
0.00 0.00 0.00 0.00 0.00 0.00 0.00 0.00 0.00 0.00 0.00 0.00 0.00 0.00 0.00 0.00 0.00 0.00 0.00 0.00 0.00 0.00 0.00 0.00 0.00 0.00 0.00 0.00 0.00 0.00 0.00 0.00 0.00 0.00 0.00 0.00 0.00 0.00 0.00 0.00 0.00 0.00 0.00 0.00
MSLP
1012.74 1012.96 1012.96 1012.74 1012.35 1011.82 1011.23 1010.63 1010.07 1009.56 1009.10 1008.67 1008.24 1007.81 1007.38 1006.97 1006.64 1006.43 1006.37 1006.49 1006.78 1007.19 1007.67 1008.14 1008.52 1008.78 1008.90 1008.91 1008.86 1008.82 1008.87 1009.05 1009.40 1009.92 1010.56 1011.27 1011.96 1012.58 1013.07 1013.43 1013.66 1013.78 1013.85 1013.90
1012.26 1012.44 1012.43 1012.23 1011.88 1011.42 1010.92 1010.41 1009.92 1009.46 1009.01 1008.55 1008.07 1007.56 1007.05 1006.58 1006.21 1005.99 1005.97 1006.17 1006.57 1007.12 1007.74 1008.34 1008.85 1009.21 1009.41 1009.46 1009.44 1009.41 1009.46 1009.65 1010.01 1010.54 1011.19 1011.91 1012.61 1013.23 1013.72 1014.06 1014.26 1014.36 1014.41 1014.44
1011.64 1011.77 1011.73 1011.55 1011.24 1010.85 1010.44 1010.02 1009.62 1009.22 1008.80 1008.34 1007.84 1007.28 1006.72 1006.20 1005.80 1005.58 1005.59 1005.86 1006.35 1007.01 1007.76 1008.49 1009.11 1009.58 1009.86 1009.98 1010.00 1010.00 1010.06 1010.26 1010.62 1011.15 1011.80 1012.51 1013.20 1013.81 1014.28 1014.60 1014.79 1014.87 1014.90 1014.92
1010.92 1010.99 1010.92 1010.73 1010.45 1010.13 1009.79 1009.46 1009.14 1008.81 1008.44 1008.01 1007.51 1006.95 1006.36 1005.83 1005.42 1005.21 1005.25 1005.57 1006.14 1006.89 1007.74 1008.58 1009.32 1009.88 1010.25 1010.45 1010.53 1010.57 1010.66 1010.86 1011.23 1011.74 1012.37 1013.05 1013.72 1014.30 1014.75 1015.06 1015.23 1015.30 1015.32 1015.33
1010.18 1010.18 1010.06 1009.85 1009.58 1009.28 1009.00 1008.74 1008.49 1008.22 1007.91 1007.53 1007.07 1006.53 1005.97 1005.45 1005.07 1004.89 1004.97 1005.34 1005.97 1006.79 1007.73 1008.65 1009.48 1010.14 1010.61 1010.89 1011.04 1011.13 1011.25 1011.47 1011.82 1012.31 1012.90 1013.55 1014.18 1014.73 1015.16 1015.44 1015.60 1015.67 1015.68 1015.68
1009.45 1009.37 1009.19 1008.93 1008.64 1008.35 1008.09 1007.87 1007.68 1007.48 1007.23 1006.91 1006.51 1006.04 1005.53 1005.08 1004.75 1004.62 1004.76 1005.18 1005.86 1006.74 1007.73 1008.73 1009.64 1010.39 1010.94 1011.31 1011.53 1011.68 1011.84 1012.07 1012.41 1012.87 1013.42 1014.02 1014.60 1015.12 1015.52 1015.79 1015.94 1016.00 1016.01 1016.00
1008.73 1008.57 1008.32 1008.01 1007.68 1007.38 1007.12 1006.92 1006.76 1006.61 1006.43 1006.19 1005.87 1005.49 1005.09 1004.72 1004.48 1004.43 1004.63 1005.09 1005.81 1006.73 1007.77 1008.82 1009.79 1010.61 1011.25 1011.70 1012.00 1012.22 1012.42 1012.66 1012.99 1013.42 1013.93 1014.48 1015.02 1015.49 1015.87 1016.12 1016.27 1016.33 1016.33 1016.31
1008.02 1007.79 1007.47 1007.11 1006.74 1006.41 1006.14 1005.94 1005.80 1005.69 1005.57 1005.41 1005.20 1004.93 1004.65 1004.40 1004.27 1004.30 1004.57 1005.08 1005.83 1006.77 1007.83 1008.91 1009.92 1010.80 1011.51 1012.04 1012.43 1012.71 1012.96 1013.23 1013.56 1013.96 1014.43 1014.93 1015.42 1015.86 1016.21 1016.45 1016.60 1016.65 1016.64 1016.61
1007.26 1006.98 1006.63 1006.23 1005.84 1005.48 1005.20 1005.00 1004.87 1004.79 1004.73 1004.65 1004.54 1004.40 1004.25 1004.13 1004.10 1004.23 1004.56 1005.10 1005.87 1006.81 1007.87 1008.95 1009.99 1010.92 1011.69 1012.30 1012.77 1013.13 1013.44 1013.74 1014.08 1014.47 1014.91 1015.37 1015.82 1016.23 1016.55 1016.78 1016.91 1016.96 1016.95 1016.89
1006.44 1006.16 1005.81 1005.41 1005.02 1004.66 1004.37 1004.17 1004.05 1004.00 1003.98 1003.98 1003.96 1003.93 1003.90 1003.89 1003.97 1004.18 1004.55 1005.12 1005.88 1006.80 1007.84 1008.91 1009.96 1010.92 1011.75 1012.44 1012.99 1013.44 1013.81 1014.17 1014.54 1014.93 1015.35 1015.78 1016.20 1016.57 1016.87 1017.08 1017.20 1017.24 1017.22 1017.14
1005.56 1005.32 1005.02 1004.67 1004.31 1003.98 1003.71 1003.51 1003.40 1003.37 1003.38 1003.43 1003.48 1003.54 1003.60 1003.69 1003.84 1004.10 1004.51 1005.08 1005.81 1006.70 1007.70 1008.75 1009.80 1010.78 1011.66 1012.43 1013.07 1013.61 1014.07 1014.49 1014.90 1015.31 1015.73 1016.14 1016.53 1016.87 1017.14 1017.34 1017.44 1017.47 1017.42 1017.32
1004.66 1004.51 1004.30 1004.04 1003.76 1003.48 1003.23 1003.05 1002.94 1002.90 1002.93 1003.00 1003.09 1003.20 1003.32 1003.48 1003.68 1003.98 1004.39 1004.94 1005.65 1006.49 1007.44 1008.46 1009.50 1010.51 1011.44 1012.28 1013.02 1013.66 1014.21 1014.71 1015.17 1015.62 1016.04 1016.44 1016.81 1017.12 1017.37 1017.53 1017.61 1017.61 1017.54 1017.42
1003.80 1003.78 1003.70 1003.55 1003.36 1003.14 1002.93 1002.75 1002.64 1002.58 1002.59 1002.65 1002.76 1002.89 1003.04 1003.23 1003.46 1003.77 1004.18 1004.72 1005.38 1006.18 1007.09 1008.08 1009.12 1010.15 1011.14 1012.06 1012.89 1013.63 1014.28 1014.86 1015.38 1015.86 1016.30 1016.69 1017.04 1017.32 1017.53 1017.66 1017.71 1017.68 1017.58 1017.42
1003.07 1003.19 1003.25 1003.22 1003.11 1002.95 1002.77 1002.59 1002.44 1002.35 1002.32 1002.35 1002.43 1002.56 1002.73 1002.93 1003.18 1003.50 1003.91 1004.43 1005.07 1005.83 1006.72 1007.69 1008.73 1009.79 1010.83 1011.82 1012.74 1013.58 1014.32 1014.97 1015.55 1016.07 1016.52 1016.90 1017.23 1017.48 1017.65 1017.74 1017.74 1017.67 1017.53 1017.34
1002.53 1002.79 1002.96 1003.03 1002.99 1002.87 1002.69 1002.48 1002.29 1002.14 1002.05 1002.04 1002.09 1002.20 1002.37 1002.58 1002.86 1003.20 1003.62 1004.14 1004.78 1005.53 1006.41 1007.38 1008.43 1009.52 1010.61 1011.67 1012.66 1013.57 1014.39 1015.10 1015.73 1016.26 1016.72 1017.09 1017.38 1017.60 1017.73 1017.77 1017.73 1017.62 1017.44 1017.21
1002.22 1002.58 1002.83 1002.96 1002.95 1002.83 1002.62 1002.37 1002.11 1001.90 1001.75 1001.68 1001.70 1001.81 1001.99 1002.24 1002.55 1002.93 1003.39 1003.94 1004.60 1005.37 1006.26 1007.25 1008.31 1009.43 1010.55 1011.65 1012.70 1013.66 1014.52 1015.28 1015.92 1016.46 1016.91 1017.26 1017.52 1017.69 1017.78 1017.78 1017.70 1017.55 1017.33 1017.06
1002.12 1002.52 1002.81 1002.94 1002.92 1002.77 1002.51 1002.19 1001.88 1001.60 1001.40 1001.30 1001.31 1001.43 1001.64 1001.95 1002.33 1002.78 1003.30 1003.92 1004.62 1005.43 1006.34 1007.35 1008.43 1009.56 1010.70 1011.82 1012.89 1013.87 1014.74 1015.50 1016.14 1016.67 1017.09 1017.41 1017.63 1017.76 1017.81 1017.77 1017.65 1017.47 1017.21 1016.91
1002.16 1002.55 1002.81 1002.91 1002.85 1002.64 1002.32 1001.94 1001.57 1001.25 1001.03 1000.93 1000.96 1001.13 1001.41 1001.80 1002.27 1002.82 1003.44 1004.13 1004.91 1005.76 1006.71 1007.73 1008.82 1009.94 1011.07 1012.18 1013.23 1014.19 1015.04 1015.77 1016.38 1016.87 1017.25 1017.53 1017.71 1017.80 1017.81 1017.74 1017.60 1017.39 1017.12 1016.79
1002.24 1002.58 1002.77 1002.81 1002.68 1002.41 1002.04 1001.63 1001.24 1000.92 1000.71 1000.66 1000.75 1001.00 1001.38 1001.87 1002.46 1003.12 1003.84 1004.62 1005.46 1006.36 1007.33 1008.36 1009.43 1010.52 1011.62 1012.68 1013.67 1014.58 1015.38 1016.06 1016.61 1017.05 1017.38 1017.61 1017.74 1017.80 1017.78 1017.70 1017.54 1017.32 1017.03 1016.70
1002.24 1002.50 1002.62 1002.59 1002.41 1002.10 1001.71 1001.31 1000.94 1000.66 1000.52 1000.55 1000.74 1001.10 1001.59 1002.21 1002.91 1003.68 1004.50 1005.35 1006.25 1007.18 1008.15 1009.16 1010.19 1011.24 1012.26 1013.25 1014.17 1015.00 1015.72 1016.32 1016.81 1017.18 1017.45 1017.64 1017.74 1017.76 1017.72 1017.62 1017.46 1017.23 1016.95 1016.61
1002.09 1002.27 1002.33 1002.25 1002.04 1001.74 1001.38 1001.03 1000.73 1000.56 1000.53 1000.67 1000.98 1001.46 1002.08 1002.81 1003.61 1004.47 1005.36 1006.27 1007.19 1008.13 1009.08 1010.05 1011.03 1012.00 1012.94 1013.84 1014.66 1015.40 1016.03 1016.55 1016.97 1017.27 1017.49 1017.62 1017.69 1017.69 1017.63 1017.52 1017.35 1017.12 1016.85 1016.51
1001.76 1001.88 1001.90 1001.81 1001.62 1001.37 1001.10 1000.85 1000.69 1000.65 1000.76 1001.03 1001.48 1002.08 1002.80 1003.62 1004.51 1005.42 1006.35 1007.28 1008.20 1009.12 1010.03 1010.94 1011.85 1012.73 1013.58 1014.38 1015.11 1015.75 1016.30 1016.74 1017.09 1017.33 1017.50 1017.59 1017.62 1017.59 1017.51 1017.39 1017.21 1016.99 1016.71 1016.38
1001.28 1001.37 1001.39 1001.33 1001.22 1001.07 1000.93 1000.83 1000.83 1000.95 1001.21 1001.63 1002.20 1002.90 1003.70 1004.58 1005.50 1006.44 1007.37 1008.28 1009.18 1010.06 1010.91 1011.75 1012.58 1013.37 1014.13 1014.84 1015.49 1016.05 1016.52 1016.90 1017.18 1017.38 1017.50 1017.55 1017.55 1017.50 1017.40 1017.26 1017.07 1016.83 1016.54 1016.20
1000.70 1000.80 1000.86 1000.88 1000.88 1000.87 1000.89 1000.98 1001.15 1001.44 1001.86 1002.40 1003.07 1003.84 1004.69 1005.59 1006.51 1007.43 1008.33 1009.21 1010.06 1010.87 1011.67 1012.44 1013.19 1013.91 1014.59 1015.22 1015.79 1016.29 1016.70 1017.03 1017.27 1017.43 1017.52 1017.54 1017.51 1017.43 1017.30 1017.13 1016.91 1016.65 1016.34 1015.97
1000.14 1000.27 1000.40 1000.53 1000.66 1000.82 1001.02 1001.29 1001.64 1002.09 1002.64 1003.28 1004.02 1004.83 1005.68 1006.57 1007.46 1008.33 1009.18 1010.00 1010.79 1011.54 1012.28 1012.98 1013.67 1014.33 1014.95 1015.52 1016.04 1016.49 1016.86 1017.15 1017.36 1017.50 1017.57 1017.56 1017.51 1017.40 1017.24 1017.03 1016.78 1016.47 1016.12 1015.73
999.69 999.87 1000.08 1000.33 1000.61 1000.93 1001.31 1001.75 1002.25 1002.83 1003.48 1004.20 1004.97 1005.77 1006.61 1007.45 1008.28 1009.09 1009.88 1010.64 1011.37 1012.07 1012.75 1013.41 1014.04 1014.65 1015.22 1015.76 1016.24 1016.65 1017.00 1017.27 1017.46 1017.58 1017.63 1017.62 1017.54 1017.40 1017.21 1016.96 1016.66 1016.32 1015.93 1015.49
Thickness
5528 5523 5532 5547 5555 5571 5588 5601 5612 5629 5647 5650 5652 5662 5676 5685 5689 5694 5699 5704 5704 5701 5700 5700 5700 5703 5705 5707 5708 5708 5707 5705 5702 5696 5689 5681 5673 5668 5663 5658 5654 5650 5647 5643
5509 5516 5534 5540 5545 5556 5569 5585 5604 5625 5644 5648 5650 5659 5675 5685 5690 5697 5700 5702 5700 5695 5693 5692 5694 5695 5696 5697 5699 5699 5698 5695 5691 5686 5679 5672 5664 5657 5652 5647 5643 5639 5635 5631
5504 5522 5526 5526 5533 5544 5561 5578 5598 5618 5638 5647 5644 5646 5665 5684 5694 5699 5704 5705 5700 5694 5688 5685 5685 5685 5686 5687 5688 5688 5686 5683 5679 5674 5668 5661 5654 5648 5641 5636 5632 5628 5624 5620
5505 5515 5516 5518 5527 5539 5557 5584 5599 5617 5623 5623 5632 5627 5664 5685 5686 5691 5696 5697 5693 5691 5685 5680 5677 5676 5676 5677 5678 5677 5675 5672 5668 5664 5658 5651 5644 5637 5632 5627 5622 5618 5613 5608
5507 5515 5516 5518 5530 5540 5561 5587 5600 5613 5619 5624 5634 5631 5655 5684 5678 5682 5688 5689 5687 5685 5680 5674 5671 5669 5668 5668 5667 5666 5664 5661 5657 5653 5647 5641 5634 5628 5623 5619 5614 5609 5603 5598
5510 5517 5519 5526 5537 5545 5562 5579 5596 5607 5609 5605 5627 5631 5648 5676 5683 5683 5684 5684 5681 5678 5673 5668 5664 5662 5659 5658 5656 5654 5652 5648 5644 5640 5635 5629 5623 5617 5612 5606 5602 5597 5592 5587
5511 5518 5523 5527 5535 5546 5557 5574 5582 5584 5588 5603 5635 5635 5652 5680 5693 5692 5686 5680 5676 5672 5666 5660 5657 5654 5651 5648 5646 5644 5641 5636 5632 5627 5622 5617 5611 5605 5600 5595 5590 5585 5579 5574
5514 5523 5530 5533 5540 5557 5569 5579 5589 5593 5593 5616 5638 5637 5661 5677 5687 5690 5685 5677 5671 5665 5660 5655 5652 5648 5644 5641 5638 5634 5630 5625 5621 5616 5610 5605 5600 5594 5589 5584 5579 5573 5568 5563
5519 5532 5542 5543 5550 5559 5575 5586 5614 5624 5625 5627 5632 5650 5657 5672 5672 5676 5674 5669 5664 5661 5656 5652 5647 5643 5638 5634 5630 5626 5621 5616 5611 5606 5600 5594 5589 5584 5578 5573 5567 5562 5557 5553
5517 5530 5543 5547 5550 5560 5578 5598 5608 5620 5622 5622 5631 5641 5649 5656 5660 5666 5667 5664 5661 5658 5653 5648 5643 5637 5632 5628 5623 5618 5613 5607 5601 5596 5590 5584 5578 5573 5568 5562 5556 5551 5546 5541
5518 5525 5543 5550 5556 5568 5582 5595 5611 5624 5639 5635 5627 5638 5671 5667 5670 5667 5667 5664 5660 5656 5650 5645 5639 5633 5627 5621 5615 5610 5604 5598 5592 5586 5580 5573 5568 5563 5557 5551 5545 5540 5534 5528
5526 5527 5543 5556 5568 5578 5592 5604 5615 5619 5630 5640 5639 5632 5670 5670 5673 5671 5667 5664 5658 5652 5647 5641 5634 5627 5619 5613 5608 5602 5595 5589 5583 5577 5570 5563 5557 5552 5546 5540 5534 5528 5522 5515
5537 5540 5552 5559 5565 5577 5590 5606 5619 5627 5631 5634 5631 5629 5661 5662 5664 5668 5664 5660 5654 5648 5642 5635 5628 5620 5613 5607 5601 5594 5587 5580 5574 5568 5560 5553 5546 5540 5534 5528 5522 5516 5509 5502
5551 5555 5563 5573 5581 5589 5595 5606 5617 5620 5618 5629 5639 5635 5651 5653 5654 5657 5656 5654 5649 5643 5638 5630 5622 5614 5608 5601 5594 5587 5578 5571 5564 5557 5550 5542 5535 5529 5523 5517 5510 5503 5496 5488
5552 5561 5575 5587 5600 5603 5605 5609 5615 5619 5627 5630 5643 5645 5648 5653 5652 5652 5651 5650 5644 5638 5633 5626 5617 5610 5602 5594 5586 5578 5569 5561 5554 5546 5538 5531 5525 5518 5512 5505 5497 5490 5482 5475
5556 5565 5580 5591 5604 5608 5609 5613 5617 5622 5627 5632 5638 5646 5662 5661 5658 5651 5647 5645 5640 5635 5629 5621 5613 5605 5596 5587 5578 5569 5559 5551 5544 5536 5528 5520 5514 5507 5500 5492 5485 5477 5470 5463
5563 5570 5580 5588 5602 5605 5602 5618 5622 5625 5631 5632 5631 5643 5653 5650 5651 5648 5646 5642 5637 5631 5624 5616 5607 5599 5589 5579 5569 5559 5549 5541 5533 5525 5518 5510 5503 5495 5488 5480 5473 5465 5458 5451
5571 5574 5580 5587 5592 5583 5615 5638 5637 5633 5636 5639 5642 5647 5648 5647 5645 5644 5644 5638 5632 5625 5617 5608 5599 5589 5579 5569 5559 5548 5539 5530 5522 5515 5507 5499 5491 5483 5475 5467 5460 5453 5446 5438
5578 5576 5577 5578 5586 5597 5620 5630 5635 5631 5633 5644 5643 5643 5638 5636 5629 5624 5631 5632 5625 5617 5609 5599 5589 5578 5567 5557 5547 5537 5527 5519 5511 5504 5496 5488 5479 5471 5463 5455 5447 5441 5433 5425
5576 5577 5573 5576 5579 5586 5611 5624 5635 5634 5625 5644 5646 5641 5631 5628 5615 5612 5616 5615 5609 5603 5595 5585 5575 5565 5553 5543 5534 5525 5516 5508 5500 5492 5484 5476 5468 5459 5451 5444 5436 5429 5421 5412
5565 5567 5569 5571 5576 5593 5610 5620 5624 5612 5617 5629 5638 5637 5628 5625 5620 5610 5603 5597 5591 5585 5577 5569 5560 5550 5540 5531 5523 5514 5506 5497 5489 5480 5472 5464 5456 5448 5441 5433 5425 5417 5408 5399
5571 5568 5568 5572 5574 5585 5608 5612 5611 5611 5618 5623 5625 5622 5612 5607 5603 5595 5587 5580 5574 5567 5561 5554 5544 5534 5526 5519 5512 5503 5494 5485 5477 5469 5461 5453 5445 5438 5431 5421 5412 5403 5393 5383
5583 5586 5586 5587 5592 5601 5609 5608 5609 5615 5613 5613 5610 5605 5602 5594 5585 5578 5570 5564 5558 5553 5546 5538 5529 5520 5513 5507 5501 5491 5482 5474 5465 5457 5450 5442 5435 5426 5418 5408 5398 5388 5377 5366
5591 5596 5595 5594 5596 5599 5602 5603 5607 5608 5605 5604 5600 5597 5592 5583 5573 5565 5558 5551 5545 5539 5532 5525 5517 5508 5500 5494 5488 5479 5470 5462 5454 5446 5439 5431 5423 5415 5406 5396 5385 5373 5361 5349
5593 5591 5592 5594 5592 5592 5595 5598 5599 5597 5595 5592 5589 5585 5579 5572 5563 5555 5547 5540 5534 5528 5521 5514 5506 5498 5490 5483 5475 5467 5459 5451 5443 5435 5427 5420 5412 5403 5394 5383 5371 5359 5346 5330
5589 5591 5591 5594 5598 5595 5593 5594 5593 5588 5583 5580 5576 5570 5565 5561 5553 5546 5538 5530 5524 5517 5510 5503 5496 5488 5479 5472 5463 5456 5448 5440 5432 5423 5416 5407 5398 5389 5380 5370 5361 5347 5332 5320